Hourly Weather Adamishki

Today, 7 March, Sunday

Time Temperature Precipitation Wind Pressure Humidity
00:00 -4°C° 0 mm 8 mps 740 mmHg 72%
01:00 -4°C° 0 mm 8 mps 739 mmHg 79%
02:00 -4°C° 0 mm 8 mps 738 mmHg 85%
03:00 -4°C° 0.2 mm 8 mps 737 mmHg 89%
04:00 -4°C° 0.2 mm 8 mps 736 mmHg 92%
05:00 -4°C° 0.2 mm 8 mps 735 mmHg 95%
06:00 -4°C° 0.8 mm 6 mps 735 mmHg 93%
07:00 -5°C° 0.8 mm 5 mps 735 mmHg 91%
08:00 -5°C° 0.8 mm 4 mps 734 mmHg 88%
09:00 -5°C° 0.4 mm 5 mps 734 mmHg 80%
10:00 -6°C° 0.4 mm 7 mps 734 mmHg 72%
11:00 -5°C° 0.4 mm 9 mps 735 mmHg 64%
12:00 -5°C° 0.1 mm 8 mps 735 mmHg 61%
13:00 -5°C° 0.1 mm 8 mps 735 mmHg 57%
14:00 -5°C° 0.1 mm 8 mps 735 mmHg 53%
15:00 -4°C° 0.1 mm 7 mps 735 mmHg 57%
16:00 -4°C° 0.1 mm 7 mps 735 mmHg 61%
17:00 -5°C° 0.1 mm 6 mps 735 mmHg 64%
18:00 -6°C° 0 mm 6 mps 735 mmHg 67%
19:00 -6°C° 0 mm 6 mps 735 mmHg 70%
20:00 -8°C° 0 mm 6 mps 735 mmHg 72%
21:00 -8°C° 0.1 mm 6 mps 735 mmHg 76%
22:00 -8°C° 0.1 mm 6 mps 735 mmHg 81%
23:00 -8°C° 0.1 mm 6 mps 736 mmHg 85%

Tomorrow, 8 March, Monday

Time Temperature Precipitation Wind Pressure Humidity
00:00 -8°C° 0.2 mm 6 mps 736 mmHg 84%
01:00 -9°C° 0.2 mm 6 mps 737 mmHg 84%
02:00 -9°C° 0.2 mm 6 mps 737 mmHg 83%
03:00 -8°C° 0 mm 5 mps 738 mmHg 82%
04:00 -9°C° 0 mm 4 mps 738 mmHg 80%
05:00 -9°C° 0 mm 4 mps 739 mmHg 79%
06:00 -9°C° 0 mm 4 mps 739 mmHg 79%
07:00 -9°C° 0 mm 4 mps 740 mmHg 80%
08:00 -9°C° 0 mm 4 mps 741 mmHg 80%
09:00 -9°C° 0 mm 4 mps 741 mmHg 77%
10:00 -8°C° 0 mm 4 mps 742 mmHg 75%
11:00 -8°C° 0 mm 4 mps 742 mmHg 72%
12:00 -7°C° 0 mm 4 mps 743 mmHg 69%
13:00 -7°C° 0 mm 4 mps 743 mmHg 66%
14:00 -7°C° 0 mm 4 mps 744 mmHg 63%
15:00 -7°C° 0 mm 4 mps 744 mmHg 65%
16:00 -8°C° 0 mm 4 mps 744 mmHg 66%
17:00 -8°C° 0 mm 4 mps 745 mmHg 68%
18:00 -8°C° 0 mm 3 mps 745 mmHg 72%
19:00 -7°C° 0 mm 2 mps 746 mmHg 75%
20:00 -8°C° 0 mm 2 mps 746 mmHg 79%
21:00 -8°C° 0 mm 2 mps 747 mmHg 81%
22:00 -8°C° 0 mm 2 mps 747 mmHg 83%
23:00 -9°C° 0 mm 2 mps 747 mmHg 85%

Day after tomorrow, 9 March, Tuesday

Time Temperature Precipitation Wind Pressure Humidity
00:00 -9°C° 0 mm 2 mps 748 mmHg 86%
01:00 -9°C° 0 mm 2 mps 748 mmHg 88%
02:00 -10°C° 0 mm 2 mps 748 mmHg 90%
03:00 -10°C° 0 mm 2 mps 748 mmHg 90%
04:00 -10°C° 0 mm 1 mps 749 mmHg 91%
05:00 -10°C° 0 mm 1 mps 749 mmHg 92%
06:00 -10°C° 0 mm 1 mps 749 mmHg 90%
07:00 -10°C° 0 mm 1 mps 750 mmHg 87%
08:00 -9°C° 0 mm 1 mps 750 mmHg 85%
09:00 -8°C° 0 mm 1 mps 750 mmHg 76%
10:00 -7°C° 0 mm 1 mps 750 mmHg 66%
11:00 -6°C° 0 mm 1 mps 751 mmHg 57%
12:00 -4°C° 0 mm 1 mps 751 mmHg 54%
13:00 -3°C° 0 mm 1 mps 751 mmHg 50%
14:00 -5°C° 0 mm 2 mps 751 mmHg 47%
15:00 -5°C° 0 mm 2 mps 750 mmHg 50%
16:00 -5°C° 0 mm 2 mps 750 mmHg 52%
17:00 -5°C° 0 mm 2 mps 750 mmHg 55%
18:00 -5°C° 0 mm 2 mps 750 mmHg 58%
19:00 -6°C° 0 mm 2 mps 750 mmHg 62%
20:00 -6°C° 0 mm 2 mps 750 mmHg 66%
21:00 -7°C° 0 mm 3 mps 749 mmHg 65%
22:00 -7°C° 0 mm 3 mps 749 mmHg 64%
23:00 -7°C° 0 mm 3 mps 749 mmHg 64%

10 March, Wednesday

Time Temperature Precipitation Wind Pressure Humidity
00:00 -7°C° 0 mm 3 mps 748 mmHg 64%
01:00 -8°C° 0 mm 4 mps 748 mmHg 65%
02:00 -7°C° 0 mm 4 mps 748 mmHg 65%
03:00 -7°C° 0.1 mm 4 mps 748 mmHg 74%
04:00 -7°C° 0.1 mm 4 mps 747 mmHg 83%
05:00 -7°C° 0.1 mm 4 mps 747 mmHg 92%
06:00 -7°C° 0.3 mm 5 mps 747 mmHg 92%
07:00 -6°C° 0.3 mm 5 mps 747 mmHg 91%
08:00 -6°C° 0.3 mm 5 mps 747 mmHg 91%
09:00 -5°C° 0.2 mm 5 mps 747 mmHg 89%
10:00 -5°C° 0.2 mm 5 mps 748 mmHg 86%
11:00 -3°C° 0.2 mm 4 mps 748 mmHg 83%
12:00 -3°C° 0.2 mm 4 mps 748 mmHg 81%
13:00 -2°C° 0.2 mm 4 mps 748 mmHg 79%
14:00 -2°C° 0.2 mm 4 mps 748 mmHg 77%
15:00 -1°C° 0.2 mm 3 mps 747 mmHg 79%
16:00 -1°C° 0.2 mm 2 mps 747 mmHg 80%
17:00 -2°C° 0.2 mm 2 mps 747 mmHg 82%
18:00 0°C° 0.1 mm 1 mps 747 mmHg 86%
19:00 -1°C° 0.1 mm 1 mps 747 mmHg 89%
20:00 -2°C° 0.1 mm 1 mps 747 mmHg 93%
21:00 -2°C° 0.1 mm 1 mps 747 mmHg 94%
22:00 -3°C° 0.1 mm 1 mps 747 mmHg 94%
23:00 -3°C° 0.1 mm 1 mps 747 mmHg 95%

11 March, Thursday

Time Temperature Precipitation Wind Pressure Humidity
00:00 -3°C° 0 mm 1 mps 747 mmHg 94%
01:00 -3°C° 0 mm 1 mps 746 mmHg 94%
02:00 -3°C° 0 mm 1 mps 746 mmHg 94%
03:00 -5°C° 0 mm 2 mps 745 mmHg 90%
04:00 -5°C° 0 mm 2 mps 745 mmHg 86%
05:00 -5°C° 0 mm 2 mps 744 mmHg 82%
06:00 -5°C° 0 mm 3 mps 744 mmHg 78%
07:00 -5°C° 0 mm 3 mps 743 mmHg 73%
08:00 -5°C° 0 mm 4 mps 743 mmHg 68%
09:00 -4°C° 0 mm 4 mps 742 mmHg 71%
10:00 -5°C° 0 mm 5 mps 741 mmHg 73%
11:00 -4°C° 0 mm 5 mps 741 mmHg 76%
12:00 -4°C° 0.3 mm 5 mps 740 mmHg 81%
13:00 -4°C° 0.3 mm 6 mps 739 mmHg 86%
14:00 -4°C° 0.3 mm 6 mps 738 mmHg 91%
15:00 -4°C° 0.4 mm 6 mps 737 mmHg 92%
16:00 -4°C° 0.4 mm 6 mps 736 mmHg 93%
17:00 -4°C° 0.4 mm 6 mps 736 mmHg 94%
18:00 -4°C° 0.5 mm 6 mps 734 mmHg 95%
19:00 -3°C° 0.5 mm 6 mps 733 mmHg 95%
20:00 -3°C° 0.5 mm 6 mps 732 mmHg 96%
21:00 -3°C° 0.9 mm 6 mps 731 mmHg 96%
22:00 -2°C° 0.9 mm 6 mps 730 mmHg 97%
23:00 0°C° 0.9 mm 5 mps 729 mmHg 97%

12 March, Friday

Time Temperature Precipitation Wind Pressure Humidity
00:00 0°C° 0.9 mm 5 mps 728 mmHg 97%
01:00 +1°C° 0.9 mm 5 mps 727 mmHg 97%
02:00 +1°C° 0.9 mm 5 mps 726 mmHg 96%
03:00 +1°C° 0.3 mm 5 mps 726 mmHg 95%
04:00 +1°C° 0.3 mm 5 mps 725 mmHg 95%
05:00 +1°C° 0.3 mm 5 mps 725 mmHg 94%
06:00 +1°C° 0.5 mm 5 mps 725 mmHg 95%
07:00 +1°C° 0.5 mm 6 mps 725 mmHg 96%
08:00 -1°C° 0.5 mm 6 mps 726 mmHg 97%
09:00 -1°C° 0.1 mm 6 mps 726 mmHg 94%
10:00 +1°C° 0.1 mm 6 mps 726 mmHg 90%
11:00 +1°C° 0.1 mm 6 mps 727 mmHg 87%
12:00 0°C° 0.1 mm 7 mps 727 mmHg 86%
13:00 0°C° 0.1 mm 7 mps 727 mmHg 85%
14:00 +2°C° 0.1 mm 7 mps 727 mmHg 84%
15:00 0°C° 0.3 mm 8 mps 726 mmHg 88%
16:00 0°C° 0.3 mm 8 mps 726 mmHg 91%
17:00 -1°C° 0.3 mm 8 mps 726 mmHg 95%
18:00 -1°C° 0.2 mm 8 mps 726 mmHg 94%
19:00 -1°C° 0.2 mm 7 mps 726 mmHg 94%
20:00 -1°C° 0.2 mm 7 mps 726 mmHg 93%
21:00 -1°C° 0.2 mm 7 mps 726 mmHg 94%
22:00 -1°C° 0.2 mm 7 mps 726 mmHg 95%
23:00 -1°C° 0.2 mm 7 mps 726 mmHg 96%
Show more